User: anonymous
Location: Stigler
(35.2540°N, 95.1230°W)
Time: 06:22:02
(UTC-05:00)
Language:

Cosmos 1805 - Orbit

View from above orbital plane
View from above orbital plane
View from above satellite
View from above satellite

Ground track
Ground track

The orbit data is extracted from the following two-line orbital elements,

1 17191U 86097A   14202.01405236  .00001029  00000-0  65733-4 0  9438
2 17191 082.4980 352.5687 0012564 092.0375 268.2292 15.07522428503322
Epoch (UTC): 21 July 2014 00:20:14
Eccentricity: 0.0012564
inclination: 82.4980°
perigee height: 535 km
apogee height: 552 km
right ascension of ascending node: 352.5687°
argument of perigee: 92.0375°
revolutions per day: 15.07522428
mean anomaly at epoch: 268.2292°
orbit number at epoch: 50332

The dashed part of the orbit path shows where the satellite is in the earth's shadow,  

DLR